CW8919 Oeiras PT current weather conditions

sailwx.info

Wind from 358

Air temperature 8.9° C
Dewpoint 6.7° C

Last reported at 2018-Jan-24 06:59 UTC.
Time now 2018-Jan-24 07:21 UTC

Location: N 38°42' W 009°20'.
View on Google Maps.

See reports from other nearby stations

  
Tides and Currents Weather Stations Pressure Air Temp Water Temp Dewpoint Dewpoint Depression Visibility Wind Speed Wind Dir Waves Ship Positions
date/time (UTC)wind fromknots sea level pressurealtimeterstation pressurevisibilityair tempwater tempwave heightnotes
2018-Jan-24 06:59 358 8.9
2018-Jan-24 06:44 358 9.4
2018-Jan-24 06:29 357 10.0
2018-Jan-24 06:14 357 10.0
2018-Jan-24 05:59 358 10.0
2018-Jan-24 05:44 358 10.0
2018-Jan-24 05:29 358 10.0
2018-Jan-24 05:15 358 10.0
2018-Jan-24 05:14 358 10.0
2018-Jan-24 04:59 358 1 gusting 6 10.0
2018-Jan-24 04:44 354 0 gusting 4 10.6
2018-Jan-24 04:29 355 2 gusting 5 10.6
2018-Jan-24 04:14 353 10.6
2018-Jan-24 03:59 349 0 gusting 7 10.6
2018-Jan-24 03:44 350 0 gusting 2 10.0
2018-Jan-24 03:29 348 10.6
2018-Jan-24 03:14 348 10.6
2018-Jan-24 02:59 349 1 gusting 5 10.6
2018-Jan-24 02:44 350 0 gusting 5 10.6
2018-Jan-24 02:29 351 10.0
2018-Jan-24 02:14 353 10.6
2018-Jan-24 01:59 353 10.6
2018-Jan-24 01:44 353 10.6
2018-Jan-24 01:29 353 11.1
2018-Jan-24 01:14 353 1 gusting 5 11.1
2018-Jan-24 00:59 352 11.1
2018-Jan-24 00:44 353 0 gusting 6 11.7
2018-Jan-24 00:29 350 1 gusting 7 11.7
2018-Jan-24 00:14 337 1 gusting 9 11.7
2018-Jan-23 23:59 342 3 gusting 11 11.7
2018-Jan-23 23:44 345 3 gusting 13 11.7
2018-Jan-23 23:29 345 4 gusting 13 11.7
2018-Jan-23 23:14 347 6 gusting 13 11.7
2018-Jan-23 22:59 345 4 gusting 12 11.7
2018-Jan-23 22:44 343 5 gusting 12 11.7
2018-Jan-23 22:29 341 7 gusting 13 11.7
2018-Jan-23 22:14 342 4 gusting 10 11.7
2018-Jan-23 21:59 339 1 gusting 6 11.7
2018-Jan-23 21:44 341 3 gusting 10 11.7
2018-Jan-23 21:29 343 2 gusting 11 11.7
2018-Jan-23 21:14 001 2 gusting 10 12.2
2018-Jan-23 20:59 347 2 gusting 8 12.2
2018-Jan-23 20:44 002 3 gusting 12 12.2
2018-Jan-23 20:29 341 6 gusting 11 12.2
2018-Jan-23 20:14 342 3 gusting 13 12.2
2018-Jan-23 19:59 343 3 gusting 10 12.2
2018-Jan-23 19:44 337 2 gusting 11 12.8
2018-Jan-23 19:29 350 4 gusting 11 12.8
2018-Jan-23 19:14 351 3 gusting 11 12.8
2018-Jan-23 18:59 340 3 gusting 13 12.8
2018-Jan-23 18:44 342 3 gusting 11 13.3
2018-Jan-23 18:29 354 3 gusting 12 13.3
2018-Jan-23 18:14 346 1 gusting 3 13.3
2018-Jan-23 17:59 347 0 gusting 6 13.9
2018-Jan-23 17:44 346 3 gusting 6 14.4
2018-Jan-23 17:29 351 0 gusting 9 14.4
2018-Jan-23 17:14 327 3 gusting 9 15.0
2018-Jan-23 16:59 323 2 gusting 10 15.6
2018-Jan-23 16:44 349 2 gusting 8 16.1
2018-Jan-23 16:29 351 1 gusting 11 16.1
2018-Jan-23 16:14 345 1 gusting 8 16.7
2018-Jan-23 15:59 349 1 gusting 7 17.2
2018-Jan-23 15:44 341 17.2
2018-Jan-23 15:29 345 5 gusting 11 17.8
2018-Jan-23 15:14 339 4 gusting 9 17.8
2018-Jan-23 14:59 343 5 gusting 10 17.8
2018-Jan-23 14:44 343 6 gusting 10 18.3
2018-Jan-23 14:29 025 0 gusting 9 17.8
2018-Jan-23 14:14 338 1 gusting 10 17.8
2018-Jan-23 13:59 029 2 gusting 9 17.8
2018-Jan-23 13:44 025 3 gusting 9 17.8
2018-Jan-23 13:29 020 3 gusting 10 17.2
2018-Jan-23 13:14 005 5 gusting 13 17.2
2018-Jan-23 12:59 359 1 gusting 12 16.7
2018-Jan-23 12:44 001 0 gusting 9 16.7
2018-Jan-23 12:29 035 5 gusting 14 16.7
2018-Jan-23 12:14 029 1 gusting 11 15.6
2018-Jan-23 11:59 350 2 gusting 13 15.0
2018-Jan-23 11:44 025 2 gusting 14 15.0
2018-Jan-23 11:29 053 4 gusting 12 14.4
2018-Jan-23 11:14 350 6 gusting 14 13.9
2018-Jan-23 10:59 340 6 gusting 16 13.9
2018-Jan-23 10:44 353 3 gusting 14 13.3
2018-Jan-23 10:29 331 3 gusting 13 12.8
2018-Jan-23 10:14 349 5 gusting 11 12.8
2018-Jan-23 09:59 009 2 gusting 11 12.2
2018-Jan-23 09:44 351 1 gusting 13 12.2
2018-Jan-23 09:29 342 5 gusting 12 12.2
2018-Jan-23 09:14 002 1 gusting 9 11.7
2018-Jan-23 08:59 359 1 gusting 13 11.1
2018-Jan-23 08:44 339 6 gusting 11 11.1
2018-Jan-23 08:29 008 1 gusting 5 10.6
2018-Jan-23 08:14 010 1 gusting 3 10.6
2018-Jan-23 07:59 009 0 gusting 4 10.0
2018-Jan-23 07:44 010 10.0
2018-Jan-23 07:29 010 0 gusting 5 10.0
2018-Jan-23 07:14 010 10.6
2018-Jan-23 06:59 010 10.6
2018-Jan-23 06:44 009 10.6
2018-Jan-23 06:29 010 10.6
2018-Jan-23 06:14 010 11.1
2018-Jan-23 05:59 010 11.7
2018-Jan-23 05:44 007 11.7
2018-Jan-23 05:29 360 0 gusting 5 12.2
2018-Jan-23 05:14 357 0 gusting 7 12.2
2018-Jan-23 04:59 348 2 gusting 11 12.2
2018-Jan-23 04:44 350 2 gusting 9 12.2
2018-Jan-23 04:29 353 1 gusting 10 12.2
2018-Jan-23 04:14 350 3 gusting 8 12.2
2018-Jan-23 03:59 346 3 gusting 12 12.2
2018-Jan-23 03:44 349 2 gusting 10 12.2
2018-Jan-23 03:29 331 3 gusting 12 12.2
2018-Jan-23 03:14 345 6 gusting 12 12.2
2018-Jan-23 02:59 015 1 gusting 10 12.2
2018-Jan-23 02:44 344 1 gusting 8 12.2
2018-Jan-23 02:29 343 1 gusting 9 12.2
2018-Jan-23 02:14 341 0 gusting 5 12.2
2018-Jan-23 01:59 339 0 gusting 2 12.2
2018-Jan-23 01:44 340 0 gusting 7 12.2
2018-Jan-23 01:29 343 0 gusting 4 12.2
2018-Jan-23 01:14 346 12.2
2018-Jan-23 00:59 345 12.2
2018-Jan-23 00:44 348 12.2
2018-Jan-23 00:29 348 12.2
2018-Jan-23 00:14 349 0 gusting 2 12.2
2018-Jan-22 23:59 346 12.2
2018-Jan-22 23:44 351 0 gusting 2 12.2
2018-Jan-22 23:29 351 1 gusting 6 12.8
2018-Jan-22 23:14 349 1 gusting 9 12.8
2018-Jan-22 22:59 350 2 gusting 10 12.8
2018-Jan-22 22:44 347 0 gusting 12 12.8
2018-Jan-22 22:29 333 2 gusting 13 12.8
2018-Jan-22 22:14 007 4 gusting 9 12.8
2018-Jan-22 21:59 339 2 gusting 11 12.8
2018-Jan-22 21:44 001 1 gusting 10 12.8
2018-Jan-22 21:29 360 5 gusting 14 12.8
2018-Jan-22 21:14 337 4 gusting 12 12.8
2018-Jan-22 20:59 338 2 gusting 16 12.8
2018-Jan-22 20:44 346 8 gusting 19 12.8
2018-Jan-22 20:29 356 6 gusting 16 13.3
2018-Jan-22 20:14 346 6 gusting 13 12.8
2018-Jan-22 19:59 341 2 gusting 12 12.8
2018-Jan-22 19:44 348 3 gusting 11 12.8
2018-Jan-22 19:29 058 3 gusting 10 12.8
2018-Jan-22 19:14 345 3 gusting 10 12.8
2018-Jan-22 18:59 331 4 gusting 10 13.3
2018-Jan-22 18:44 350 6 gusting 13 13.3
2018-Jan-22 18:29 354 1 gusting 9 13.3
2018-Jan-22 18:14 341 0 gusting 6 13.3
2018-Jan-22 17:59 343 0 gusting 8 13.9
2018-Jan-22 17:44 345 2 gusting 8 13.9
2018-Jan-22 17:29 344 0 gusting 9 13.9
2018-Jan-22 17:14 015 3 gusting 12 13.9
2018-Jan-22 16:59 345 5 gusting 11 14.4
2018-Jan-22 16:44 353 6 gusting 13 14.4
2018-Jan-22 16:29 335 6 gusting 13 15.0
2018-Jan-22 16:14 333 4 gusting 12 15.0
2018-Jan-22 15:59 337 2 gusting 13 15.6
2018-Jan-22 15:44 340 9 gusting 16 15.6
2018-Jan-22 15:29 006 1 gusting 12 16.1
2018-Jan-22 15:14 324 6 gusting 14 16.1
2018-Jan-22 14:59 003 6 gusting 15 16.7
2018-Jan-22 14:44 330 3 gusting 16 16.7
2018-Jan-22 14:29 008 1 gusting 14 16.7
2018-Jan-22 14:14 029 1 gusting 12 16.1
2018-Jan-22 13:59 360 6 gusting 12 15.6
2018-Jan-22 13:44 343 2 gusting 12 15.6
2018-Jan-22 13:29 360 1 gusting 10 15.6
2018-Jan-22 13:14 337 2 gusting 10 15.6
2018-Jan-22 12:59 353 2 gusting 10 15.6
2018-Jan-22 12:44 037 3 gusting 12 15.6
2018-Jan-22 12:29 351 5 gusting 12 15.6
2018-Jan-22 12:14 037 1 gusting 10 15.0
2018-Jan-22 11:59 349 1 gusting 5 14.4
2018-Jan-22 11:44 351 4 gusting 9 14.4
2018-Jan-22 11:29 353 0 gusting 9 14.4
2018-Jan-22 11:14 360 0 gusting 7 13.9
2018-Jan-22 10:59 006 0 gusting 6 13.9
2018-Jan-22 10:44 354 1 gusting 8 13.9
2018-Jan-22 10:29 357 0 gusting 4 13.9
2018-Jan-22 10:14 351 0 gusting 4 13.9
2018-Jan-22 09:59 351 1 gusting 7 13.9
2018-Jan-22 09:44 353 0 gusting 8 13.3
2018-Jan-22 09:29 007 2 gusting 8 13.3
2018-Jan-22 09:14 020 1 gusting 5 13.3
2018-Jan-22 08:59 002 13.3
2018-Jan-22 08:44 353 5 gusting 11 13.3
2018-Jan-22 08:29 353 2 gusting 10 13.3
2018-Jan-22 08:14 358 2 gusting 7 13.3
2018-Jan-22 07:59 349 0 gusting 3 13.3
2018-Jan-22 07:44 351 1 gusting 7 13.3
2018-Jan-22 07:29 354 1 gusting 8 13.3
2018-Jan-22 07:14 346 2 gusting 9 13.3